Year,Month,Day,Hour,Minute,Value (Times are PST for temperature in C)
2009,12,10,00,00,-6.10
2009,12,10,00,01,-6.10
2009,12,10,00,02,-6.10
2009,12,10,00,03,-6.10
2009,12,10,00,04,-6.10
2009,12,10,00,05,-6.10
2009,12,10,00,06,-6.10
2009,12,10,00,07,-6.10
2009,12,10,00,08,-6.10
2009,12,10,00,09,-6.10
2009,12,10,00,10,-6.10
2009,12,10,00,11,-6.10
2009,12,10,00,12,-6.10
2009,12,10,00,13,-6.10
2009,12,10,00,14,-6.10
2009,12,10,00,15,-6.10
2009,12,10,00,16,-6.10
2009,12,10,00,17,-6.10
2009,12,10,00,18,-6.10
2009,12,10,00,19,-6.10
2009,12,10,00,20,-6.10
2009,12,10,00,21,-6.10
2009,12,10,00,22,-6.10
2009,12,10,00,23,-6.10
2009,12,10,00,24,-6.00
2009,12,10,00,25,-5.90
2009,12,10,00,26,-5.90
2009,12,10,00,27,-5.90
2009,12,10,00,28,-5.80
2009,12,10,00,29,-5.80
2009,12,10,00,30,-5.80
2009,12,10,00,31,-5.70
2009,12,10,00,32,-5.70
2009,12,10,00,33,-5.70
2009,12,10,00,34,-5.70
2009,12,10,00,35,-5.70
2009,12,10,00,36,-5.70
2009,12,10,00,37,-5.70
2009,12,10,00,38,-5.70
2009,12,10,00,39,-5.70
2009,12,10,00,40,-5.80
2009,12,10,00,41,-5.80
2009,12,10,00,42,-5.80
2009,12,10,00,43,-5.80
2009,12,10,00,44,-5.80
2009,12,10,00,45,-5.80
2009,12,10,00,46,-5.80
2009,12,10,00,47,-5.80
2009,12,10,00,48,-5.90
2009,12,10,00,49,-5.90
2009,12,10,00,50,-5.90
2009,12,10,00,51,-5.90
2009,12,10,00,52,-5.90
2009,12,10,00,53,-5.90
2009,12,10,00,54,-6.00
2009,12,10,00,55,-6.10
2009,12,10,00,56,-6.10
2009,12,10,00,57,-6.10
2009,12,10,00,58,-6.10
2009,12,10,00,59,-6.10
2009,12,10,01,00,-6.10
2009,12,10,01,01,-6.20
2009,12,10,01,02,-6.20
2009,12,10,01,03,-6.20
2009,12,10,01,04,-6.20
2009,12,10,01,05,-6.20
2009,12,10,01,06,-6.20
2009,12,10,01,07,-6.20
2009,12,10,01,08,-6.20
2009,12,10,01,09,-6.20
2009,12,10,01,10,-6.10
2009,12,10,01,11,-6.10
2009,12,10,01,12,-6.10
2009,12,10,01,13,-6.10
2009,12,10,01,14,-6.10
2009,12,10,01,15,-6.10
2009,12,10,01,16,-5.90
2009,12,10,01,17,-5.90
2009,12,10,01,18,-5.90
2009,12,10,01,19,-5.90
2009,12,10,01,20,-5.90
2009,12,10,01,21,-5.90
2009,12,10,01,22,-5.90
2009,12,10,01,23,-5.90
2009,12,10,01,24,-5.90
2009,12,10,01,25,-6.00
2009,12,10,01,26,-6.10
2009,12,10,01,27,-6.10
2009,12,10,01,28,-6.10
2009,12,10,01,29,-6.10
2009,12,10,01,30,-6.10
2009,12,10,01,31,-6.20
2009,12,10,01,32,-6.20
2009,12,10,01,33,-6.20
2009,12,10,01,34,-6.20
2009,12,10,01,35,-6.20
2009,12,10,01,36,-6.20
2009,12,10,01,37,-6.30
2009,12,10,01,38,-6.30
2009,12,10,01,39,-6.30
2009,12,10,01,40,-6.30
2009,12,10,01,41,-6.30
2009,12,10,01,42,-6.40
2009,12,10,01,43,-6.40
2009,12,10,01,44,-6.40
2009,12,10,01,45,-6.50
2009,12,10,01,46,-6.50
2009,12,10,01,47,-6.50
2009,12,10,01,48,-6.50
2009,12,10,01,49,-6.60
2009,12,10,01,50,-6.60
2009,12,10,01,51,-6.70
2009,12,10,01,52,-6.70
2009,12,10,01,53,-6.70
2009,12,10,01,54,-6.70
2009,12,10,01,55,-6.70
2009,12,10,01,56,-6.70
2009,12,10,01,57,-6.70
2009,12,10,01,58,-6.60
2009,12,10,01,59,-6.60
2009,12,10,02,00,-6.60
2009,12,10,02,01,-6.50
2009,12,10,02,02,-6.50
2009,12,10,02,03,-6.50
2009,12,10,02,04,-6.50
2009,12,10,02,05,-6.50
2009,12,10,02,06,-6.50
2009,12,10,02,07,-6.40
2009,12,10,02,08,-6.40
2009,12,10,02,09,-6.40
2009,12,10,02,10,-6.40
2009,12,10,02,11,-6.40
2009,12,10,02,12,-6.40
2009,12,10,02,13,-6.40
2009,12,10,02,14,-6.40
2009,12,10,02,15,-6.50
2009,12,10,02,16,-6.50
2009,12,10,02,17,-6.50
2009,12,10,02,18,-6.50
2009,12,10,02,19,-6.50
2009,12,10,02,20,-6.60
2009,12,10,02,21,-6.60
2009,12,10,02,22,-6.60
2009,12,10,02,23,-6.60
2009,12,10,02,24,-6.60
2009,12,10,02,25,-6.60
2009,12,10,02,26,-6.60
2009,12,10,02,27,-6.60
2009,12,10,02,28,-6.60
2009,12,10,02,29,-6.60
2009,12,10,02,30,-6.60
2009,12,10,02,31,-6.60
2009,12,10,02,32,-6.70
2009,12,10,02,33,-6.70
2009,12,10,02,34,-6.70
2009,12,10,02,35,-6.70
2009,12,10,02,36,-6.70
2009,12,10,02,37,-6.70
2009,12,10,02,38,-6.70
2009,12,10,02,39,-6.80
2009,12,10,02,40,-6.80
2009,12,10,02,41,-6.80
2009,12,10,02,42,-6.80
2009,12,10,02,43,-6.80
2009,12,10,02,44,-6.80
2009,12,10,02,45,-6.80
2009,12,10,02,46,-6.70
2009,12,10,02,47,-6.70
2009,12,10,02,48,-6.70
2009,12,10,02,49,-6.70
2009,12,10,02,50,-6.70
2009,12,10,02,51,-6.60
2009,12,10,02,52,-6.60
2009,12,10,02,53,-6.60
2009,12,10,02,54,-6.60
2009,12,10,02,55,-6.60
2009,12,10,02,56,-6.60
2009,12,10,02,57,-6.60
2009,12,10,02,58,-6.60
2009,12,10,02,59,-6.50
2009,12,10,03,00,-6.50
2009,12,10,03,01,-6.50
2009,12,10,03,02,-6.50
2009,12,10,03,03,-6.50
2009,12,10,03,04,-6.50
2009,12,10,03,05,-6.50
2009,12,10,03,06,-6.50
2009,12,10,03,07,-6.50
2009,12,10,03,08,-6.50
2009,12,10,03,09,-6.50
2009,12,10,03,10,-6.50
2009,12,10,03,11,-6.50
2009,12,10,03,12,-6.50
2009,12,10,03,13,-6.60
2009,12,10,03,14,-6.60
2009,12,10,03,15,-6.60
2009,12,10,03,16,-6.70
2009,12,10,03,17,-6.70
2009,12,10,03,18,-6.70
2009,12,10,03,19,-6.70
2009,12,10,03,20,-6.70
2009,12,10,03,21,-6.70
2009,12,10,03,22,-6.70
2009,12,10,03,23,-6.70
2009,12,10,03,24,-6.70
2009,12,10,03,25,-6.70
2009,12,10,03,26,-6.70
2009,12,10,03,27,-6.80
2009,12,10,03,28,-6.80
2009,12,10,03,29,-6.80
2009,12,10,03,30,-6.90
2009,12,10,03,31,-6.90
2009,12,10,03,32,-6.90
2009,12,10,03,33,-6.90
2009,12,10,03,34,-6.90
2009,12,10,03,35,-6.90
2009,12,10,03,36,-7.00
2009,12,10,03,37,-7.00
2009,12,10,03,38,-7.00
2009,12,10,03,39,-7.00
2009,12,10,03,40,-7.00
2009,12,10,03,41,-7.10
2009,12,10,03,42,-7.10
2009,12,10,03,43,-7.10
2009,12,10,03,44,-7.10
2009,12,10,03,45,-7.10
2009,12,10,03,46,-7.20
2009,12,10,03,47,-7.20
2009,12,10,03,48,-7.20
2009,12,10,03,49,-7.20
2009,12,10,03,50,-7.20
2009,12,10,03,51,-7.20
2009,12,10,03,52,-7.30
2009,12,10,11,38,2.20
2009,12,10,11,39,2.20
2009,12,10,11,40,2.10
2009,12,10,11,41,2.00
2009,12,10,11,42,2.00
2009,12,10,11,43,2.00
2009,12,10,11,44,2.00
2009,12,10,11,45,1.90
2009,12,10,11,46,1.90
2009,12,10,11,47,1.90
2009,12,10,11,48,1.90
2009,12,10,11,49,1.90
2009,12,10,11,50,1.90
2009,12,10,11,51,1.90
2009,12,10,11,52,1.90
2009,12,10,11,53,1.90
2009,12,10,11,54,1.80
2009,12,10,11,55,1.80
2009,12,10,11,56,1.80
2009,12,10,11,57,1.80
2009,12,10,11,58,1.80
2009,12,10,11,59,1.80
2009,12,10,12,00,1.80
2009,12,10,12,01,1.80
2009,12,10,12,02,1.80
2009,12,10,12,03,1.80
2009,12,10,12,04,1.80
2009,12,10,12,05,1.80
2009,12,10,12,06,1.80
2009,12,10,12,07,1.80
2009,12,10,12,08,1.80
2009,12,10,12,09,1.80
2009,12,10,12,10,1.90
2009,12,10,12,11,1.90
2009,12,10,12,12,1.90
2009,12,10,12,13,2.00
2009,12,10,12,14,2.00
2009,12,10,12,15,2.10
2009,12,10,12,16,2.10
2009,12,10,12,17,2.10
2009,12,10,12,18,2.10
2009,12,10,12,19,2.10
2009,12,10,12,20,2.00
2009,12,10,12,21,2.10
2009,12,10,12,22,2.10
2009,12,10,12,23,2.10
2009,12,10,12,24,2.10
2009,12,10,12,25,2.20
2009,12,10,12,26,2.20
2009,12,10,12,27,2.20
2009,12,10,12,28,2.10
2009,12,10,12,29,2.10
2009,12,10,12,30,2.10
2009,12,10,12,31,2.20
2009,12,10,12,32,2.20
2009,12,10,12,33,2.20
2009,12,10,12,34,2.20
2009,12,10,12,35,2.20
2009,12,10,12,36,2.20
2009,12,10,12,37,2.20
2009,12,10,12,38,2.30
2009,12,10,12,39,2.30
2009,12,10,12,40,2.30
2009,12,10,12,41,2.30
2009,12,10,12,42,2.40
2009,12,10,12,43,2.40
2009,12,10,12,44,2.40
2009,12,10,12,45,2.50
2009,12,10,12,46,2.50
2009,12,10,12,47,2.50
2009,12,10,12,48,2.60
2009,12,10,12,49,2.50
2009,12,10,12,50,2.50
2009,12,10,12,51,2.50
2009,12,10,12,52,2.50
2009,12,10,12,53,2.50
2009,12,10,12,54,2.50
2009,12,10,12,55,2.40
2009,12,10,12,56,2.40
2009,12,10,12,57,2.40
2009,12,10,12,58,2.40
2009,12,10,12,59,2.40
2009,12,10,13,00,2.40
2009,12,10,13,01,2.40
2009,12,10,13,02,2.40
2009,12,10,13,03,2.40
2009,12,10,13,04,2.30
2009,12,10,13,05,2.20
2009,12,10,13,06,2.20
2009,12,10,13,07,2.20
2009,12,10,13,08,2.20
2009,12,10,13,09,2.20
2009,12,10,13,10,2.20
2009,12,10,13,11,2.20
2009,12,10,13,12,2.20
2009,12,10,13,13,2.20
2009,12,10,13,14,2.20
2009,12,10,13,15,2.20
2009,12,10,13,16,2.20
2009,12,10,13,17,2.20
2009,12,10,13,18,2.20
2009,12,10,13,19,2.10
2009,12,10,13,20,2.10
2009,12,10,13,21,2.10
2009,12,10,13,22,2.10
2009,12,10,13,23,2.10
2009,12,10,13,24,2.10
2009,12,10,13,25,2.10
2009,12,10,13,26,2.20
2009,12,10,13,27,2.20
2009,12,10,13,28,2.20
2009,12,10,13,29,2.20
2009,12,10,13,30,2.20
2009,12,10,13,31,2.20
2009,12,10,13,32,2.20
2009,12,10,13,33,2.20
2009,12,10,13,34,2.20
2009,12,10,13,35,2.20
2009,12,10,13,36,2.20
2009,12,10,13,37,2.20
2009,12,10,13,38,2.20
2009,12,10,13,39,2.20
2009,12,10,13,40,2.20
2009,12,10,13,41,2.20
2009,12,10,13,42,2.20
2009,12,10,13,43,2.30
2009,12,10,13,44,2.30
2009,12,10,13,45,2.40
2009,12,10,13,46,2.40
2009,12,10,13,47,2.50
2009,12,10,13,48,2.50
2009,12,10,13,49,2.50
2009,12,10,13,50,2.60
2009,12,10,13,51,2.60
2009,12,10,13,52,2.60
2009,12,10,13,53,2.60
2009,12,10,13,54,2.60
2009,12,10,13,55,2.60
2009,12,10,13,56,2.60
2009,12,10,13,57,2.60
2009,12,10,13,58,2.60
2009,12,10,13,59,2.60
2009,12,10,14,00,2.50
2009,12,10,14,01,2.50
2009,12,10,14,02,2.50
2009,12,10,14,03,2.40
2009,12,10,14,04,2.40
2009,12,10,14,05,2.40
2009,12,10,14,06,2.40
2009,12,10,14,07,2.40
2009,12,10,14,08,2.40
2009,12,10,14,09,2.40
2009,12,10,14,10,2.40
2009,12,10,14,11,2.40
2009,12,10,14,12,2.30
2009,12,10,14,13,2.30
2009,12,10,14,14,2.30
2009,12,10,14,15,2.20
2009,12,10,14,16,2.20
2009,12,10,14,17,2.10
2009,12,10,14,18,2.10
2009,12,10,14,19,2.10
2009,12,10,14,20,2.20
2009,12,10,14,21,2.20
2009,12,10,14,22,2.20
2009,12,10,14,23,2.20
2009,12,10,14,24,2.20
2009,12,10,14,25,2.30
2009,12,10,14,26,2.40
2009,12,10,14,27,2.40
2009,12,10,14,28,2.50
2009,12,10,14,29,2.50
2009,12,10,14,30,2.50
2009,12,10,14,31,2.50
2009,12,10,14,32,2.60
2009,12,10,14,33,2.60
2009,12,10,14,34,2.60
2009,12,10,14,35,2.60
2009,12,10,14,36,2.60
2009,12,10,14,37,2.60
2009,12,10,14,38,2.50
2009,12,10,14,39,2.50
2009,12,10,14,40,2.50
2009,12,10,14,41,2.50
2009,12,10,14,42,2.50
2009,12,10,14,43,2.50
2009,12,10,14,44,2.60
2009,12,10,14,45,2.60
2009,12,10,14,46,2.60
2009,12,10,14,47,2.60
2009,12,10,14,48,2.60
2009,12,10,14,49,2.60
2009,12,10,14,50,2.60
2009,12,10,14,51,2.70
2009,12,10,14,52,2.70
2009,12,10,14,53,2.70
2009,12,10,14,54,2.70
2009,12,10,14,55,2.70
2009,12,10,14,56,2.60
2009,12,10,14,57,2.60
2009,12,10,14,58,2.60
2009,12,10,14,59,2.60
2009,12,10,15,00,2.60
2009,12,10,15,01,2.70
2009,12,10,15,02,2.70
2009,12,10,15,03,2.70
2009,12,10,15,04,2.70
2009,12,10,15,05,2.80
2009,12,10,15,06,2.80
2009,12,10,15,07,2.90
2009,12,10,15,08,2.90
2009,12,10,15,09,2.80
2009,12,10,15,10,2.80
2009,12,10,15,11,2.80
2009,12,10,15,12,2.80
2009,12,10,15,13,2.80
2009,12,10,15,14,2.80
2009,12,10,15,15,2.70
2009,12,10,15,16,2.70
2009,12,10,15,17,2.70
2009,12,10,15,18,2.60
2009,12,10,15,19,2.50
2009,12,10,15,20,2.50
2009,12,10,15,21,2.50
2009,12,10,15,22,2.50
2009,12,10,15,23,2.40
2009,12,10,15,24,2.40
2009,12,10,15,25,2.40
2009,12,10,15,26,2.30
2009,12,10,15,27,2.30
2009,12,10,15,28,2.30
2009,12,10,15,29,2.30
2009,12,10,15,30,2.30
2009,12,10,15,31,2.30
2009,12,10,15,32,2.20
2009,12,10,15,33,2.20
2009,12,10,15,34,2.20
2009,12,10,15,35,2.20
2009,12,10,15,36,2.20
2009,12,10,15,37,2.20
2009,12,10,15,38,2.20
2009,12,10,15,39,2.20
2009,12,10,15,40,2.20
2009,12,10,15,41,2.20
2009,12,10,15,42,2.20
2009,12,10,15,43,2.20
2009,12,10,15,44,2.20
2009,12,10,15,45,2.20
2009,12,10,15,46,2.10
2009,12,10,15,47,2.10
2009,12,10,15,48,2.10
2009,12,10,15,49,2.10
2009,12,10,15,50,2.10
2009,12,10,15,51,2.10
2009,12,10,15,52,2.10
2009,12,10,15,53,2.10
2009,12,10,15,54,2.00
2009,12,10,15,55,2.10
2009,12,10,15,56,2.10
2009,12,10,15,57,2.10
2009,12,10,15,58,2.10
2009,12,10,15,59,2.10
2009,12,10,16,00,2.10
2009,12,10,16,01,2.10
2009,12,10,16,02,2.00
2009,12,10,16,03,2.00
2009,12,10,16,04,2.00
2009,12,10,16,05,2.00
2009,12,10,16,06,2.00
2009,12,10,16,07,2.00
2009,12,10,16,08,2.00
2009,12,10,16,09,2.00
2009,12,10,16,10,2.00
2009,12,10,16,11,2.00
2009,12,10,16,12,1.90
2009,12,10,16,13,2.00
2009,12,10,16,14,2.00
2009,12,10,16,15,2.00
2009,12,10,16,16,2.00
2009,12,10,16,17,2.00
2009,12,10,16,18,2.00
2009,12,10,16,19,2.00
2009,12,10,16,20,2.00
2009,12,10,16,21,2.00
2009,12,10,16,22,2.00
2009,12,10,16,23,2.00
2009,12,10,16,24,1.90
2009,12,10,16,25,1.90
2009,12,10,16,26,1.90
2009,12,10,16,27,1.90
2009,12,10,16,28,1.90
2009,12,10,16,29,1.80
2009,12,10,16,30,1.80
2009,12,10,16,31,1.90
2009,12,10,16,32,1.90
2009,12,10,16,33,1.90
2009,12,10,16,34,1.90
2009,12,10,16,35,1.90
2009,12,10,16,36,1.90
2009,12,10,16,37,1.90
2009,12,10,16,38,1.90
2009,12,10,16,39,1.90
2009,12,10,16,40,1.80
2009,12,10,16,41,1.80
2009,12,10,16,42,1.80
2009,12,10,16,43,1.80
2009,12,10,16,44,1.90
2009,12,10,16,45,1.90
2009,12,10,16,46,1.90
2009,12,10,16,47,1.90
2009,12,10,16,48,1.90
2009,12,10,16,49,1.90
2009,12,10,16,50,1.90
2009,12,10,16,51,1.90
2009,12,10,16,52,1.90
2009,12,10,16,53,1.90
2009,12,10,16,54,1.90
2009,12,10,16,55,1.90
2009,12,10,16,56,1.90
2009,12,10,16,57,1.90
2009,12,10,16,58,1.90
2009,12,10,16,59,1.90
2009,12,10,17,00,1.90
2009,12,10,17,01,1.90
2009,12,10,17,02,1.90
2009,12,10,17,03,1.80
2009,12,10,17,04,1.80
2009,12,10,17,05,1.80
2009,12,10,17,06,1.80
2009,12,10,17,07,1.80
2009,12,10,17,08,1.80
2009,12,10,17,09,1.80
2009,12,10,17,10,1.80
2009,12,10,17,11,1.80
2009,12,10,17,12,1.80
2009,12,10,17,13,1.80
2009,12,10,17,14,1.80
2009,12,10,17,15,1.80
2009,12,10,17,16,1.80
2009,12,10,17,17,1.80
2009,12,10,17,18,1.80
2009,12,10,17,19,1.80
2009,12,10,17,20,1.80
2009,12,10,17,21,1.80
2009,12,10,17,22,1.80
2009,12,10,17,23,1.80
2009,12,10,17,24,1.80
2009,12,10,17,25,1.70
2009,12,10,17,26,1.70
2009,12,10,17,27,1.70
2009,12,10,17,28,1.70
2009,12,10,17,29,1.70
2009,12,10,17,30,1.70
2009,12,10,17,31,1.70
2009,12,10,17,32,1.70
2009,12,10,17,33,1.70
2009,12,10,17,34,1.70
2009,12,10,17,35,1.60
2009,12,10,17,36,1.60
2009,12,10,17,37,1.60
2009,12,10,17,38,1.60
2009,12,10,17,39,1.60
2009,12,10,17,40,1.60
2009,12,10,17,41,1.60
2009,12,10,17,42,1.60
2009,12,10,17,43,1.60
2009,12,10,17,44,1.60
2009,12,10,17,45,1.60
2009,12,10,17,46,1.60
2009,12,10,17,47,1.60
2009,12,10,17,48,1.60
2009,12,10,17,49,1.60
2009,12,10,17,50,1.60
2009,12,10,17,51,1.60
2009,12,10,17,52,1.60
2009,12,10,17,53,1.60
2009,12,10,17,54,1.60
2009,12,10,17,55,1.50
2009,12,10,17,56,1.50
2009,12,10,17,57,1.50
2009,12,10,17,58,1.50
2009,12,10,17,59,1.50
2009,12,10,18,00,1.50
2009,12,10,18,01,1.50
2009,12,10,18,02,1.50
2009,12,10,18,03,1.50
2009,12,10,18,04,1.50
2009,12,10,18,05,1.50
2009,12,10,18,06,1.50
2009,12,10,18,07,1.50
2009,12,10,18,08,1.50
2009,12,10,18,09,1.50
2009,12,10,18,10,1.50
2009,12,10,18,11,1.40
2009,12,10,18,12,1.40
2009,12,10,18,13,1.40
2009,12,10,18,14,1.40
2009,12,10,18,15,1.40
2009,12,10,18,16,1.40
2009,12,10,18,17,1.30
2009,12,10,18,18,1.30
2009,12,10,18,19,1.30
2009,12,10,18,20,1.30
2009,12,10,18,21,1.30
2009,12,10,18,22,1.30
2009,12,10,18,23,1.30
2009,12,10,18,24,1.30
2009,12,10,18,25,1.30
2009,12,10,18,26,1.30
2009,12,10,18,27,1.20
2009,12,10,18,28,1.20
2009,12,10,18,29,1.20
2009,12,10,18,30,1.10
2009,12,10,18,31,1.10
2009,12,10,18,32,1.10
2009,12,10,18,33,1.10
2009,12,10,18,34,1.10
2009,12,10,18,35,1.10
2009,12,10,18,36,1.10
2009,12,10,18,37,1.00
2009,12,10,18,38,1.00
2009,12,10,18,39,1.00
2009,12,10,18,40,1.00
2009,12,10,18,41,1.00
2009,12,10,18,42,1.00
2009,12,10,18,43,1.00
2009,12,10,18,44,1.00
2009,12,10,18,45,1.00
2009,12,10,18,46,1.00
2009,12,10,18,47,1.00
2009,12,10,18,48,1.00
2009,12,10,18,49,1.00
2009,12,10,18,50,1.00
2009,12,10,18,51,1.00
2009,12,10,18,52,0.90
2009,12,10,18,53,0.90
2009,12,10,18,54,0.90
2009,12,10,18,55,0.90
2009,12,10,18,56,0.90
2009,12,10,18,57,0.90
2009,12,10,18,58,0.90
2009,12,10,18,59,0.90
2009,12,10,19,00,0.80
2009,12,10,19,01,0.80
2009,12,10,19,02,0.80
2009,12,10,19,03,0.80
2009,12,10,19,04,0.80
2009,12,10,19,05,0.80
2009,12,10,19,06,0.80
2009,12,10,19,07,0.80
2009,12,10,19,08,0.80
2009,12,10,19,09,0.80
2009,12,10,19,10,0.80
2009,12,10,19,11,0.80
2009,12,10,19,12,0.80
2009,12,10,19,13,0.80
2009,12,10,19,14,0.80
2009,12,10,19,15,0.80
2009,12,10,19,16,0.80
2009,12,10,19,17,0.80
2009,12,10,19,18,0.80
2009,12,10,19,19,0.80
2009,12,10,19,20,0.80
2009,12,10,19,21,0.80
2009,12,10,19,22,0.80
2009,12,10,19,23,0.80
2009,12,10,19,24,0.80
2009,12,10,19,25,0.80
2009,12,10,19,26,0.80
2009,12,10,19,27,0.80
2009,12,10,19,28,0.80
2009,12,10,19,29,0.80
2009,12,10,19,30,0.80
2009,12,10,19,31,0.80
2009,12,10,19,32,0.80
2009,12,10,19,33,0.80
2009,12,10,19,34,0.80
2009,12,10,19,35,0.80
2009,12,10,19,36,0.80
2009,12,10,19,37,0.80
2009,12,10,19,38,0.80
2009,12,10,19,39,0.80
2009,12,10,19,40,0.80
2009,12,10,19,41,0.80
2009,12,10,19,42,0.80
2009,12,10,19,43,0.80
2009,12,10,19,44,0.80
2009,12,10,19,45,0.80
2009,12,10,19,46,0.80
2009,12,10,19,47,0.70
2009,12,10,19,48,0.70
2009,12,10,19,49,0.70
2009,12,10,19,50,0.70
2009,12,10,19,51,0.70
2009,12,10,19,52,0.70
2009,12,10,19,53,0.70
2009,12,10,19,54,0.70
2009,12,10,19,55,0.70
2009,12,10,19,56,0.70
2009,12,10,19,57,0.70
2009,12,10,19,58,0.70
2009,12,10,19,59,0.70
2009,12,10,20,00,0.70
2009,12,10,20,01,0.70
2009,12,10,20,02,0.70
2009,12,10,20,03,0.70
2009,12,10,20,04,0.70
2009,12,10,20,05,0.70
2009,12,10,20,06,0.70
2009,12,10,20,07,0.70
2009,12,10,20,08,0.70
2009,12,10,20,09,0.80
2009,12,10,20,10,0.80
2009,12,10,20,11,0.80
2009,12,10,20,12,0.80
2009,12,10,20,13,0.80
2009,12,10,20,14,0.80
2009,12,10,20,15,0.80
2009,12,10,20,16,0.80
2009,12,10,20,17,0.70
2009,12,10,20,18,0.70
2009,12,10,20,19,0.60
2009,12,10,20,20,0.60
2009,12,10,20,21,0.60
2009,12,10,20,22,0.60
2009,12,10,20,23,0.60
2009,12,10,20,24,0.60
2009,12,10,20,25,0.60
2009,12,10,20,26,0.60
2009,12,10,20,27,0.60
2009,12,10,20,28,0.60
2009,12,10,20,29,0.60
2009,12,10,20,30,0.60
2009,12,10,20,31,0.50
2009,12,10,20,32,0.50
2009,12,10,20,33,0.50
2009,12,10,20,34,0.50
2009,12,10,20,35,0.50
2009,12,10,20,36,0.50
2009,12,10,20,37,0.50
2009,12,10,20,38,0.50
2009,12,10,20,39,0.50
2009,12,10,20,40,0.50
2009,12,10,20,41,0.50
2009,12,10,20,42,0.50
2009,12,10,20,43,0.40
2009,12,10,20,44,0.40
2009,12,10,20,45,0.40
2009,12,10,20,46,0.40
2009,12,10,20,47,0.40
2009,12,10,20,48,0.40
2009,12,10,20,49,0.50
2009,12,10,20,50,0.50
2009,12,10,20,51,0.50
2009,12,10,20,52,0.50
2009,12,10,20,53,0.50
2009,12,10,20,54,0.50
2009,12,10,20,55,0.50
2009,12,10,20,56,0.50
2009,12,10,20,57,0.50
2009,12,10,20,58,0.50
2009,12,10,20,59,0.50
2009,12,10,21,00,0.50
2009,12,10,21,01,0.50
2009,12,10,21,02,0.40
2009,12,10,21,03,0.40
2009,12,10,21,04,0.40
2009,12,10,21,05,0.40
2009,12,10,21,06,0.40
2009,12,10,21,07,0.40
2009,12,10,21,08,0.40
2009,12,10,21,09,0.40
2009,12,10,21,10,0.40
2009,12,10,21,11,0.40
2009,12,10,21,12,0.40
2009,12,10,21,13,0.40
2009,12,10,21,14,0.40
2009,12,10,21,15,0.40
2009,12,10,21,16,0.40
2009,12,10,21,17,0.40
2009,12,10,21,18,0.40
2009,12,10,21,19,0.40
2009,12,10,21,20,0.40
2009,12,10,21,21,0.40
2009,12,10,21,22,0.40
2009,12,10,21,23,0.40
2009,12,10,21,24,0.40
2009,12,10,21,25,0.40
2009,12,10,21,26,0.40
2009,12,10,21,27,0.50
2009,12,10,21,28,0.50
2009,12,10,21,29,0.50
2009,12,10,21,30,0.50
2009,12,10,21,31,0.50
2009,12,10,21,32,0.50
2009,12,10,21,33,0.50
2009,12,10,21,34,0.50
2009,12,10,21,35,0.50
2009,12,10,21,36,0.50
2009,12,10,21,37,0.60
2009,12,10,21,38,0.60
2009,12,10,21,39,0.60
2009,12,10,21,40,0.60
2009,12,10,21,41,0.60
2009,12,10,21,42,0.60
2009,12,10,21,43,0.60
2009,12,10,21,44,0.60
2009,12,10,21,45,0.60
2009,12,10,21,46,0.60
2009,12,10,21,47,0.60
2009,12,10,21,48,0.60
2009,12,10,21,49,0.60
2009,12,10,21,50,0.60
2009,12,10,21,51,0.60
2009,12,10,21,52,0.60
2009,12,10,21,53,0.60
2009,12,10,21,54,0.60
2009,12,10,21,55,0.60
2009,12,10,21,56,0.60
2009,12,10,21,57,0.60
2009,12,10,21,58,0.60
2009,12,10,21,59,0.60
2009,12,10,22,00,0.60
2009,12,10,22,01,0.60
2009,12,10,22,02,0.60
2009,12,10,22,03,0.60
2009,12,10,22,04,0.60
2009,12,10,22,05,0.60
2009,12,10,22,06,0.60
2009,12,10,22,07,0.60
2009,12,10,22,08,0.60
2009,12,10,22,09,0.60
2009,12,10,22,10,0.60
2009,12,10,22,11,0.60
2009,12,10,22,12,0.60
2009,12,10,22,13,0.60
2009,12,10,22,14,0.60
2009,12,10,22,15,0.60
2009,12,10,22,16,0.60
2009,12,10,22,17,0.60
2009,12,10,22,18,0.60
2009,12,10,22,19,0.60
2009,12,10,22,20,0.60
2009,12,10,22,21,0.60
2009,12,10,22,22,0.60
2009,12,10,22,23,0.60
2009,12,10,22,24,0.60
2009,12,10,22,25,0.60
2009,12,10,22,26,0.60
2009,12,10,22,27,0.60
2009,12,10,22,28,0.50
2009,12,10,22,29,0.50
2009,12,10,22,30,0.60
2009,12,10,22,31,0.60
2009,12,10,22,32,0.60
2009,12,10,22,33,0.60
2009,12,10,22,34,0.60
2009,12,10,22,35,0.60
2009,12,10,22,36,0.50
2009,12,10,22,37,0.50
2009,12,10,22,38,0.50
2009,12,10,22,39,0.50
2009,12,10,22,40,0.50
2009,12,10,22,41,0.40
2009,12,10,22,42,0.40
2009,12,10,22,43,0.40
2009,12,10,22,44,0.40
2009,12,10,22,45,0.40
2009,12,10,22,46,0.40
2009,12,10,22,47,0.40
2009,12,10,22,48,0.40
2009,12,10,22,49,0.40
2009,12,10,22,50,0.40
2009,12,10,22,51,0.40
2009,12,10,22,52,0.40
2009,12,10,22,53,0.40
2009,12,10,22,54,0.40
2009,12,10,22,55,0.40
2009,12,10,22,56,0.40
2009,12,10,22,57,0.40
2009,12,10,22,58,0.40
2009,12,10,22,59,0.50
2009,12,10,23,00,0.50
2009,12,10,23,01,0.50
2009,12,10,23,02,0.50
2009,12,10,23,03,0.50
2009,12,10,23,04,0.50
2009,12,10,23,05,0.50
2009,12,10,23,06,0.50
2009,12,10,23,07,0.50
2009,12,10,23,08,0.50
2009,12,10,23,09,0.40
2009,12,10,23,10,0.50
2009,12,10,23,11,0.50
2009,12,10,23,12,0.50
2009,12,10,23,13,0.50
2009,12,10,23,14,0.50
2009,12,10,23,15,0.50
2009,12,10,23,16,0.50
2009,12,10,23,17,0.50
2009,12,10,23,18,0.40
2009,12,10,23,19,0.40
2009,12,10,23,20,0.40
2009,12,10,23,21,0.40
2009,12,10,23,22,0.40
2009,12,10,23,23,0.40
2009,12,10,23,24,0.50
2009,12,10,23,25,0.50
2009,12,10,23,26,0.50
2009,12,10,23,27,0.50
2009,12,10,23,28,0.50
2009,12,10,23,29,0.50
2009,12,10,23,30,0.50
2009,12,10,23,31,0.50
2009,12,10,23,32,0.50
2009,12,10,23,33,0.50
2009,12,10,23,34,0.50
2009,12,10,23,35,0.50
2009,12,10,23,36,0.50
2009,12,10,23,37,0.40
2009,12,10,23,38,0.40
2009,12,10,23,39,0.40
2009,12,10,23,40,0.40
2009,12,10,23,41,0.40
2009,12,10,23,42,0.40
2009,12,10,23,43,0.40
2009,12,10,23,44,0.50
2009,12,10,23,45,0.50
2009,12,10,23,46,0.50
2009,12,10,23,47,0.50
2009,12,10,23,48,0.50
2009,12,10,23,49,0.50
2009,12,10,23,50,0.50
2009,12,10,23,51,0.50
2009,12,10,23,52,0.50
2009,12,10,23,53,0.50
2009,12,10,23,54,0.50
2009,12,10,23,55,0.50
2009,12,10,23,56,0.50
2009,12,10,23,57,0.50
2009,12,10,23,58,0.50
2009,12,10,23,59,0.50
